SCOUT X-4 R/B

Satellite information

Favourite Embed

Satellite Type and Status

ROCKET BODYIN ORBIT

Key statistics

Satellite SCOUT X-4 R/B at a glance.

Uptime

22185

Days in orbit

Revolutions

≈ 13.8

Per day

Orbit

LEO

Low Earth Orbit

Inclination

79.7

Latest

Satellite identification and parameters

Extended collection of information and parameters for SCOUT X-4 R/B.

Object identification

Identified? True

Debris? False

Object name: SCOUT X-4 R/B

International designator: 1964-064B

Object number (NORAD): 907

Object ID (CCSDS): 907

Country: UNITED STATES OF AMERICA (US)

Current information (Y/N): Y

RCS size: MEDIUM

Orbital parameters

Period: 104.284 minutes

Inclination: 79.69 deg

SMA: 7339.044 km

Apoapsis: 1050.406 km

Periapsis: 871.411 km

RAAN: 187.3414 deg

Eccentricy: 0.0121947

Argument of periapsis: 109.7048 deg

Mean anomaly: 251.7305 deg

Mean motion: 13.80840558 rev/day

Mean motion (dot): 0.00000116 rev/day2

B* drag term: 0.000096966 1/REarth

Two-line elements (TLE)

Creation date: July 5, 2025, 5:45 p.m.

Reference frame: TEME

Reference center: EARTH

Epoch: July 5, 2025, 12:12 p.m. UTC

TLE line 0: 0 SCOUT X-4 R/B

TLE line 1: 1 00907U 64064B 25186.50852993 .00000116 00000-0 96966-4 0 9997

TLE line 2: 2 00907 79.6900 187.3414 0121947 109.7048 251.7305 13.80840558 54790

Live tracking on map

Real-time ground track for satellite SCOUT X-4 R/B.

In-orbit conjunctions

A list of the most updated potential collisions computed for object SCOUT X-4 R/B.

Target Orbit TCA Probability of collision Miss distance Type
FENGYUN 1C DEB SSO 2025-03-29 02:18:06 0.0002071296 243.0 (m) DEBRIS
CZ-6A DEB SSO 2024-10-10 17:11:18 0.0001610225 307.0 (m) DEBRIS
FENGYUN 1C DEB SSO 2024-06-10 09:30:08 0.0003057597 925.0 (m) DEBRIS

Associated space launch

The BE (Beacon Explorer) satellites provided Laser reflectors for geodetic measurements as well measured the electron density in the ionosphere.

SCOUT X-4 R/B was lifted into orbit during the mission ‘Scout X-4 | Beacon Explorer B’, on board a Scout X-4 space rocket.

The launch took place on Oct. 10, 1964, 3:01 a.m. from Space Launch Complex 5.

For more information about the launch, click the button.

Launch to space Scout X-4 | Beacon Explorer B
Scout X-4 | Beacon Explorer B

Agency: N/A

Status: Launch Successful

Launch date: Oct. 10, 1964, 3:01 a.m. UTC

Rocket: Scout X-4

Launch pad: Space Launch Complex 5

Location: Vandenberg SFB, CA, USA

...

Latest news about this satellite

There are no fresh news available about this satellite. Check back as we update our databases every day.


Newsletter sign-up

Weekly statistics, charts and insights to help you stay on top of the space industry.